| time (UTC) | temp F | wind direction | speed knots | gust knots | rain 1hr in | rain 24hr in | rain mn in | humidity % | barometer mb |
| 20260507201537 | 57 | 246 | 2.6 | 7.8 | 0.00 | 0.01 | 0.01 | 97 | 1003.5 |
| 20260507200059 | 56 | 0 | 0.0 | 8.7 | 0.00 | 0.01 | 0.01 | 98 | 1003.6 |
| 20260507194542 | 56 | 0 | 0.0 | 7.0 | 0.00 | 0.01 | 0.01 | 98 | 1003.9 |
| 20260507193045 | 55 | 246 | 2.6 | 8.7 | 0.00 | 0.01 | 0.01 | 98 | 1003.8 |
| 20260507191538 | 54 | 246 | 1.7 | 4.3 | 0.00 | 0.01 | 0.01 | 98 | 1003.6 |
| 20260507190037 | 54 | 246 | 1.7 | 7.0 | 0.00 | 0.01 | 0.01 | 98 | 1003.9 |
| 20260507184539 | 54 | 246 | 2.6 | 7.0 | 0.00 | 0.01 | 0.01 | 98 | 1004.1 |
| 20260507183046 | 53 | 0 | 0.0 | 7.0 | 0.00 | 0.01 | 0.01 | 98 | 1004.0 |
| 20260507181542 | 53 | 0 | 0.9 | 5.2 | 0.00 | 0.01 | 0.01 | 98 | 1003.9 |
| 20260507180045 | 53 | 246 | 0.9 | 7.8 | 0.00 | 0.01 | 0.01 | 98 | 1004.1 |
| 20260507174539 | 52 | 246 | 2.6 | 5.2 | 0.00 | 0.01 | 0.01 | 98 | 1004.3 |
| 20260507173037 | 52 | 246 | 2.6 | 5.2 | 0.00 | 0.01 | 0.01 | 98 | 1004.1 |
| 20260507171536 | 51 | 246 | 1.7 | 5.2 | 0.00 | 0.01 | 0.01 | 98 | 1004.5 |
| 20260507170043 | 51 | 246 | 4.3 | 7.0 | 0.00 | 0.01 | 0.01 | 98 | 1003.8 |
| 20260507164556 | 51 | 246 | 0.9 | 3.5 | 0.00 | 0.01 | 0.01 | 98 | 1004.7 |
| 20260507163039 | 50 | 246 | 1.7 | 5.2 | 0.00 | 0.01 | 0.01 | 98 | 1004.5 |
| 20260507161539 | 50 | 246 | 1.7 | 3.5 | 0.00 | 0.01 | 0.01 | 98 | 1004.7 |
| 20260507160039 | 50 | 0 | 0.0 | 4.3 | 0.00 | 0.01 | 0.01 | 98 | 1004.8 |
| 20260507154540 | 50 | 246 | 0.9 | 5.2 | 0.00 | 0.01 | 0.01 | 98 | 1005.5 |
| 20260507153042 | 49 | 0 | 0.9 | 3.5 | 0.00 | 0.01 | 0.01 | 98 | 1005.1 |
| 20260507151540 | 49 | 246 | 2.6 | 7.0 | 0.00 | 0.01 | 0.01 | 98 | 1005.4 |
| 20260507150038 | 49 | 246 | 3.5 | 5.2 | 0.00 | 0.01 | 0.01 | 98 | 1005.0 |
| 20260507144537 | 50 | 246 | 1.7 | 2.6 | 0.00 | 0.01 | 0.01 | 98 | 1006.0 |
| 20260507143038 | 50 | 246 | 0.9 | 2.6 | 0.00 | 0.01 | 0.01 | 98 | 1006.2 |
| 20260507141539 | 50 | 246 | 0.9 | 7.0 | 0.01 | 0.01 | 0.01 | 98 | 1005.9 |
| 20260507140044 | 50 | 246 | 4.3 | 10.4 | 0.01 | 0.01 | 0.01 | 98 | 1006.6 |
| 20260507134541 | 50 | 246 | 1.7 | 9.6 | 0.01 | 0.02 | 0.01 | 98 | 1006.0 |
| 20260507133055 | 51 | 246 | 3.5 | 9.6 | 0.01 | 0.02 | 0.01 | 98 | 1006.4 |
| 20260507131548 | 51 | 246 | 4.3 | 9.6 | 0.00 | 0.01 | 0.00 | 98 | 1006.4 |
| 20260507130049 | 51 | 246 | 1.7 | 8.7 | 0.00 | 0.01 | 0.00 | 98 | 1006.3 |
| 20260507124536 | 51 | 246 | 3.5 | 11.3 | 0.00 | 0.01 | 0.00 | 98 | 1006.8 |
| 20260507123034 | 51 | 246 | 5.2 | 12.2 | 0.00 | 0.01 | 0.00 | 98 | 1006.8 |
| 20260507121540 | 51 | 246 | 2.6 | 11.3 | 0.00 | 0.01 | 0.00 | 97 | 1007.0 |
| 20260507120050 | 51 | 246 | 2.6 | 13.0 | 0.00 | 0.01 | 0.00 | 97 | 1007.1 |
| 20260507114603 | 51 | 246 | 1.7 | 7.8 | 0.00 | 0.01 | 0.00 | 98 | 1007.1 |
| 20260507113037 | 51 | 246 | 3.5 | 13.0 | 0.00 | 0.01 | 0.00 | 97 | 1007.4 |
| 20260507111537 | 52 | 246 | 2.6 | 11.3 | 0.00 | 0.01 | 0.00 | 97 | 1007.4 |
| 20260507110037 | 52 | 246 | 4.3 | 13.9 | 0.00 | 0.01 | 0.00 | 97 | 1007.7 |
| 20260507104540 | 51 | 246 | 3.5 | 11.3 | 0.00 | 0.01 | 0.00 | 97 | 1008.1 |
| 20260507103038 | 52 | 246 | 6.1 | 14.8 | 0.00 | 0.01 | 0.00 | 97 | 1008.3 |
| 20260507101542 | 52 | 246 | 5.2 | 16.5 | 0.00 | 0.01 | 0.00 | 97 | 1008.3 |
| 20260507100037 | 51 | 246 | 2.6 | 10.4 | 0.00 | 0.01 | 0.00 | 97 | 1008.0 |
| 20260507094537 | 51 | 246 | 3.5 | 11.3 | 0.00 | 0.01 | 0.00 | 97 | 1008.2 |
| 20260507093047 | 51 | 246 | 7.0 | 13.9 | 0.00 | 0.01 | 0.00 | 97 | 1008.3 |
| 20260507091545 | 51 | 246 | 5.2 | 17.4 | 0.00 | 0.01 | 0.00 | 97 | 1008.3 |
| 20260507090040 | 51 | 246 | 5.2 | 13.9 | 0.00 | 0.01 | 0.00 | 96 | 1008.5 |
| 20260507084543 | 51 | 246 | 6.1 | 15.6 | 0.00 | 0.01 | 0.00 | 96 | 1008.5 |
| 20260507083037 | 51 | 246 | 6.1 | 14.8 | 0.00 | 0.01 | 0.00 | 96 | 1008.7 |
| 20260507081540 | 51 | 246 | 6.1 | 13.9 | 0.00 | 0.01 | 0.00 | 96 | 1009.0 |
| 20260507080036 | 50 | 246 | 5.2 | 13.9 | 0.00 | 0.01 | 0.00 | 96 | 1009.1 |
| 20260507074535 | 49 | 246 | 4.3 | 17.4 | 0.00 | 0.01 | 0.00 | 95 | 1009.4 |
| 20260507073039 | 50 | 246 | 5.2 | 12.2 | 0.00 | 0.01 | 0.00 | 95 | 1009.3 |
| 20260507071537 | 50 | 246 | 3.5 | 15.6 | 0.00 | 0.01 | 0.00 | 95 | 1009.3 |
| 20260507070039 | 50 | 246 | 3.5 | 15.6 | 0.00 | 0.01 | 0.00 | 94 | 1009.9 |
| 20260507064538 | 50 | 246 | 6.1 | 15.6 | 0.00 | 0.01 | 0.00 | 94 | 1010.1 |
| 20260507063037 | 50 | 246 | 7.8 | 15.6 | 0.00 | 0.01 | 0.00 | 94 | 1010.3 |
| 20260507061537 | 50 | 246 | 7.0 | 13.9 | 0.00 | 0.01 | 0.00 | 93 | 1010.7 |
| 20260507060036 | 50 | 246 | 5.2 | 16.5 | 0.00 | 0.01 | 0.00 | 92 | 1011.1 |
| 20260507054541 | 50 | 246 | 5.2 | 17.4 | 0.00 | 0.01 | 0.00 | 91 | 1011.3 |
| 20260507053039 | 50 | 246 | 5.2 | 13.0 | 0.00 | 0.01 | 0.00 | 90 | 1011.8 |
| 20260507051538 | 50 | 246 | 5.2 | 13.0 | 0.00 | 0.01 | 0.00 | 90 | 1012.0 |
| 20260507050037 | 50 | 246 | 4.3 | 16.5 | 0.00 | 0.01 | 0.00 | 90 | 1012.3 |
| 20260507044538 | 50 | 246 | 4.3 | 11.3 | 0.00 | 0.01 | 0.00 | 90 | 1012.4 |
| 20260507043039 | 50 | 246 | 6.1 | 13.9 | 0.00 | 0.01 | 0.00 | 89 | 1011.9 |
| 20260507041538 | 51 | 246 | 2.6 | 10.4 | 0.00 | 0.01 | 0.00 | 88 | 1013.4 |
| 20260507040041 | 51 | 246 | 2.6 | 10.4 | 0.00 | 0.01 | 0.00 | 89 | 1013.8 |
| 20260507034538 | 52 | 246 | 2.6 | 10.4 | 0.00 | 0.01 | 0.00 | 89 | 1013.9 |
| 20260507033037 | 51 | 246 | 2.6 | 10.4 | 0.00 | 0.01 | 0.00 | 89 | 1014.3 |
| 20260507031540 | 51 | 246 | 4.3 | 13.9 | 0.00 | 0.01 | 0.00 | 89 | 1014.3 |
| 20260507030038 | 51 | 246 | 3.5 | 8.7 | 0.00 | 0.01 | 0.00 | 89 | 1014.4 |
| 20260507024537 | 51 | 246 | 3.5 | 9.6 | 0.00 | 0.01 | 0.01 | 89 | 1014.8 |
| 20260507023045 | 51 | 246 | 3.5 | 9.6 | 0.00 | 0.01 | 0.01 | 89 | 1015.0 |
| 20260507021541 | 51 | 246 | 3.5 | 7.8 | 0.00 | 0.01 | 0.01 | 89 | 1015.4 |
| 20260507020058 | 51 | 246 | 3.5 | 8.7 | 0.00 | 0.01 | 0.01 | 88 | 1015.6 |
| 20260507014537 | 52 | 246 | 4.3 | 10.4 | 0.00 | 0.01 | 0.01 | 88 | 1015.9 |
| 20260507013048 | 52 | 246 | 4.3 | 12.2 | 0.00 | 0.01 | 0.01 | 88 | 1016.1 |
| 20260507011537 | 52 | 246 | 1.7 | 9.6 | 0.00 | 0.01 | 0.01 | 88 | 1016.3 |
| 20260507010037 | 52 | 246 | 2.6 | 7.8 | 0.00 | 0.01 | 0.01 | 88 | 1016.7 |
| 20260507004552 | 52 | 246 | 2.6 | 9.6 | 0.00 | 0.01 | 0.01 | 89 | 1016.8 |
| 20260507003044 | 51 | 0 | 1.7 | 8.7 | 0.00 | 0.01 | 0.01 | 88 | 1017.0 |
| 20260507001544 | 52 | 246 | 1.7 | 8.7 | 0.00 | 0.01 | 0.01 | 87 | 1017.0 |
| 20260507000037 | 52 | 246 | 2.6 | 7.0 | 0.00 | 0.01 | 0.01 | 87 | 1017.2 |
| 20260506234541 | 52 | 246 | 2.6 | 7.0 | 0.00 | 0.01 | 0.01 | 86 | 1017.2 |
| 20260506233041 | 53 | 246 | 1.7 | 7.0 | 0.00 | 0.01 | 0.01 | 86 | 1017.2 |
| 20260506231542 | 53 | 246 | 1.7 | 7.0 | 0.00 | 0.01 | 0.01 | 85 | 1017.2 |
| 20260506230046 | 53 | 246 | 2.6 | 7.8 | 0.00 | 0.01 | 0.01 | 85 | 1017.1 |
| 20260506224538 | 54 | 246 | 4.3 | 11.3 | 0.00 | 0.02 | 0.01 | 84 | 1016.8 |
| 20260506223043 | 55 | 246 | 1.7 | 11.3 | 0.00 | 0.02 | 0.01 | 83 | 1017.0 |
| 20260506221535 | 56 | 246 | 5.2 | 12.2 | 0.00 | 0.02 | 0.01 | 80 | 1017.3 |
| 20260506220036 | 59 | 246 | 6.1 | 14.8 | 0.00 | 0.02 | 0.01 | 79 | 1017.3 |
| 20260506214541 | 59 | 246 | 5.2 | 16.5 | 0.00 | 0.02 | 0.01 | 80 | 1017.1 |
| 20260506213051 | 59 | 246 | 4.3 | 13.9 | 0.00 | 0.02 | 0.01 | 80 | 1017.5 |
| 20260506211537 | 59 | 246 | 6.1 | 19.1 | 0.00 | 0.02 | 0.01 | 79 | 1017.6 |
| 20260506210037 | 59 | 246 | 2.6 | 9.6 | 0.00 | 0.02 | 0.01 | 80 | 1017.4 |
| 20260506204537 | 58 | 246 | 5.2 | 13.0 | 0.00 | 0.02 | 0.01 | 80 | 1017.5 |
| 20260506203036 | 57 | 246 | 3.5 | 20.0 | 0.00 | 0.02 | 0.01 | 80 | 1017.6 |